Location: Austin, TX
(30.3000°N, 97.7500°W)
Time: 22:31:19
(UTC-06:00)

Daily predictions for brighter satellites

Satellite Brightness Start Highest point End
(mag) Time Altitude Azimuth Time Altitude Azimuth Time Altitude Azimuth
Meteor 1-14 Rocket 4.5 18:36:46 10° S 18:42:41 88° W 18:48:42 10° N
ASTRO F (AKARI) 4.4 18:43:34 10° NNE 18:47:09 84° ESE 18:50:30 10° S
SL-16 R/B 3.0 18:43:16 10° N 18:48:12 30° ENE 18:53:06 10° SE
Okean 3 4.3 18:46:19 10° NNW 18:50:32 57° W 18:54:41 10° S
Meteor 1-20 Rocket 4.3 18:46:04 10° S 18:51:47 66° E 18:57:34 10° NNE
Cosmos 2360 4.2 18:47:41 10° NNW 18:53:26 82° ENE 18:59:09 10° SSE
Cosmos 1818 3.6 18:50:31 10° SSW 18:55:54 70° ESE 19:01:20 10° NNE
Cosmos 2151 Rocket 3.8 18:52:21 10° SSE 18:56:40 51° E 19:01:02 10° NNE
Cosmos 1745 Rocket 4.2 18:50:29 10° S 18:56:50 81° W 19:03:09 10° N
Cosmos 1340 4.3 18:58:38 10° NE 19:00:53 15° ENE 19:03:07 10° ESE
Cosmos 2292 Rocket 4.1 18:57:21 10° SSE 19:01:30 47° E 19:07:01 10° NNE
Cosmos 1461 4.3 18:59:48 10° NNE 19:02:36 18° NE 19:04:50 12° E
Okean 1 Rocket 4.3 19:02:56 10° SE 19:06:18 21° E 19:09:41 10° NE
Cosmos 2322 Rocket 2.5 19:01:34 10° N 19:06:57 45° ENE 19:12:18 10° SE
FREGAT/IRIS 3.1 19:04:07 10° SE 19:06:59 38° ENE 19:09:52 10° N
Okean 1 3.7 19:07:41 10° N 19:11:33 42° E 19:15:24 10° SSE
SL-8 R/B 3.8 19:08:33 10° NW 19:13:20 62° NE 19:17:50 12° ESE
ATLAS 2A CENTAUR R/B 1.7 19:11:43 10° WSW 19:13:54 44° S 19:18:32 13° ESE
Cosmos 407 Rocket 3.8 19:10:20 10° SSW 19:15:30 70° WNW 19:20:47 10° N
Cosmos 676 Rocket 3.9 19:11:17 10° S 19:16:26 78° ESE 19:21:38 10° NNE
ALOS 2.7 19:13:22 10° SE 19:17:41 39° ENE 19:22:00 10° N
ERBS 2.7 19:14:26 10° NW 19:17:53 68° SW 19:21:18 10° SSE
Cosmos 1992 Rocket 4.3 19:13:21 10° NNW 19:18:35 73° WSW 19:23:47 10° S
FENGYUN 3A 3.9 19:17:05 10° SE 19:22:10 45° ENE 19:27:18 10° N
H-2A R/B 3.8 19:22:00 22° E 19:22:46 23° ENE 19:25:44 10° NNE
Meteor 1-11 Rocket 3.8 19:28:02 10° S 19:33:38 60° E 19:39:22 10° NNE
PSLV R/B 4.0 19:33:25 10° WNW 19:36:27 44° SW 19:38:04 22° SSE
Cosmos 1812 3.8 19:32:59 10° NNW 19:36:42 46° W 19:40:22 10° SSW
Cosmos 1238 Rocket 4.4 19:34:43 10° NNE 19:35:11 13° NNE 19:35:11 13° NNE
Helios 1B rocket 2.9 19:38:47 27° NE 19:40:22 38° E 19:44:13 10° SSE
Cosmos 1140 Rocket 3.3 19:38:16 10° SSW 19:43:23 84° ESE 19:48:32 10° NNE
Cosmos 1536 Rocket 3.7 19:43:42 10° N 19:48:10 77° W 19:52:36 10° S
Cosmos 2219 3.5 19:43:18 10° S 19:48:43 45° ESE 19:51:30 26° NE
Spot 2 Rocket 3.4 19:45:06 10° SSE 19:50:04 66° ENE 19:55:05 10° N
Resurs 01 Rocket 1.5 19:45:59 10° SSE 19:50:22 71° ENE 19:54:46 10° N
GPS 2-04 Rocket1 3.0 19:47:55 10° SW 19:52:08 55° SSE 19:52:48 49° ESE
Cosmos 1602 4.4 19:51:33 10° SSW 19:55:19 55° W 19:59:08 10° N
Tiangong 2 3.3 19:53:31 10° NNW 19:54:42 16° N 19:54:42 16° N
Cosmos 1850 Rocket 3.9 19:52:46 10° S 19:57:59 70° ESE 20:02:31 14° NNE
Cosmos 614 Rocket 3.8 19:52:54 10° SSW 19:58:00 86° ESE 20:03:05 10° NNE
Cosmos 2360 Rocket 2.4 19:54:22 10° N 19:59:50 48° ENE 20:00:38 45° E
HJ-1C 4.4 19:58:10 10° S 20:01:26 47° W 20:04:42 10° NNW
DNEPR-1 R/B 3.6 19:58:45 10° NNW 20:02:56 75° WSW 20:04:45 34° SSE
SL-08 ROCKET BODY 4.3 19:57:26 10° S 20:03:31 73° E 20:09:42 10° N
Cosmos 2327 Rocket 4.4 19:57:47 10° S 20:03:49 59° E 20:09:58 10° NNE
SL-19 R/B 4.3 20:01:43 10° SSE 20:07:16 81° WSW 20:13:04 10° NNW
Cosmos 2181 Rocket 4.1 20:02:22 10° N 20:08:38 79° W 20:14:58 10° S
BREEZE-M DEB (TANK) 4.3 20:08:05 10° NNW 20:09:29 21° N 20:09:29 21° N
Longmarch 3A Rocket 3.6 20:11:33 10° WSW 20:12:06 17° WSW 20:12:06 17° WSW
Resurs 1-3 3.8 20:11:39 14° S 20:15:24 69° WSW 20:19:47 10° NNW
H-2A ROCKET BODY 4.3 20:07:57 10° W 20:18:43 23° SW 20:22:45 10° S
Cosmos 2184 Rocket 3.9 20:16:07 10° S 20:22:28 90° SSW 20:28:47 10° N
ASTRO E2 3.8 20:18:45 10° W 20:21:53 40° SW 20:21:53 40° SW
Cosmos 2074 Rocket 3.9 20:16:38 10° S 20:22:51 86° W 20:29:09 10° N
BREEZE-M DEB (TANK) 4.3 20:25:44 10° NW 20:28:34 33° WNW 20:28:34 33° WNW
SL-16 R/B 4.1 20:27:22 10° NW 20:32:08 28° WSW 20:36:52 10° SSW
CZ-3C R/B 3.2 20:32:11 10° WSW 20:34:30 15° SW 20:34:30 15° SW
Hubble Space Telescope 3.4 20:33:43 10° SW 20:34:17 13° SSW 20:34:17 13° SSW
